User: anonymous   Login
Location: Buckeye Ditch
(40.9104°N, 122.9517°W)
Time: 01:26:14
(UTC+00:00)
Language:

Cosmos 1666 Rocket - Orbit

View from above orbital plane
View from above orbital plane
View from above satellite
View from above satellite

Ground track
Ground track

The orbit data is extracted from the following two-line orbital elements,

1 15890U 85058B   24174.60194935  .00000610  00000-0  69081-4 0  9999
2 15890  82.5258  21.7732 0021723  51.8689 308.4481 14.84604459 83676
Epoch (UTC): 22 June 2024 14:26:48
Eccentricity: 0.0021723
inclination: 82.5258°
perigee height: 599 km
apogee height: 630 km
right ascension of ascending node: 21.7732°
argument of perigee: 51.8689°
revolutions per day: 14.84604459
mean anomaly at epoch: 308.4481°
orbit number at epoch: 8367

The dashed part of the orbit path shows where the satellite is in the earth's shadow,  

DLR